| time (UTC) | temp C | wind direction | speed KPH | gust KPH | rain 1hr cm | rain 24hr cm | rain mn cm | humidity % | barometer mb |
| 20260505083503 | 18 | 208 | 14.5 | 38.6 | 0.00 | 0.00 | 0.00 | 44 | 1011.2 |
| 20260505083005 | 18 | 206 | 16.1 | 41.8 | 0.00 | 0.00 | 0.00 | 44 | 1011.2 |
| 20260505082503 | 19 | 202 | 14.5 | 41.8 | 0.00 | 0.00 | 0.00 | 44 | 1011.2 |
| 20260505082004 | 19 | 201 | 12.9 | 35.4 | 0.00 | 0.00 | 0.00 | 45 | 1011.2 |
| 20260505081504 | 19 | 205 | 14.5 | 35.4 | 0.00 | 0.00 | 0.00 | 44 | 1011.1 |
| 20260505081004 | 19 | 203 | 12.9 | 30.6 | 0.00 | 0.00 | 0.00 | 44 | 1011.1 |
| 20260505080503 | 19 | 194 | 11.3 | 40.2 | 0.00 | 0.00 | 0.00 | 45 | 1010.9 |
| 20260505080004 | 19 | 193 | 12.9 | 40.2 | 0.00 | 0.00 | 0.00 | 44 | 1011.0 |
| 20260505075504 | 18 | 196 | 11.3 | 35.4 | 0.00 | 0.00 | 0.00 | 45 | 1010.9 |
| 20260505075004 | 18 | 197 | 11.3 | 30.6 | 0.00 | 0.00 | 0.00 | 45 | 1010.9 |
| 20260505074503 | 18 | 199 | 11.3 | 30.6 | 0.00 | 0.00 | 0.00 | 45 | 1010.8 |
| 20260505074004 | 18 | 196 | 11.3 | 30.6 | 0.00 | 0.00 | 0.00 | 46 | 1010.9 |
| 20260505073503 | 18 | 199 | 9.7 | 30.6 | 0.00 | 0.00 | 0.00 | 46 | 1010.9 |
| 20260505072504 | 19 | 195 | 11.3 | 33.8 | 0.00 | 0.00 | 0.00 | 45 | 1010.7 |
| 20260505072005 | 19 | 201 | 12.9 | 33.8 | 0.00 | 0.00 | 0.00 | 46 | 1010.6 |
| 20260505071503 | 19 | 207 | 14.5 | 38.6 | 0.00 | 0.00 | 0.00 | 45 | 1010.6 |
| 20260505071004 | 19 | 205 | 14.5 | 38.6 | 0.00 | 0.00 | 0.00 | 45 | 1010.6 |
| 20260505070503 | 19 | 202 | 12.9 | 38.6 | 0.00 | 0.00 | 0.00 | 46 | 1010.6 |
| 20260505070004 | 19 | 206 | 14.5 | 38.6 | 0.00 | 0.00 | 0.00 | 45 | 1010.6 |
| 20260505065503 | 19 | 205 | 14.5 | 33.8 | 0.00 | 0.00 | 0.00 | 45 | 1010.5 |
| 20260505065004 | 19 | 207 | 14.5 | 45.1 | 0.00 | 0.00 | 0.00 | 45 | 1010.4 |
| 20260505064503 | 19 | 209 | 14.5 | 45.1 | 0.00 | 0.00 | 0.00 | 45 | 1010.4 |
| 20260505064004 | 19 | 207 | 14.5 | 40.2 | 0.00 | 0.00 | 0.00 | 46 | 1010.5 |
| 20260505063504 | 19 | 205 | 14.5 | 32.2 | 0.00 | 0.00 | 0.00 | 45 | 1010.5 |
| 20260505063005 | 19 | 205 | 14.5 | 38.6 | 0.00 | 0.00 | 0.00 | 46 | 1010.6 |
| 20260505062504 | 19 | 208 | 16.1 | 38.6 | 0.00 | 0.00 | 0.00 | 46 | 1010.6 |
| 20260505062004 | 19 | 206 | 16.1 | 40.2 | 0.00 | 0.00 | 0.00 | 46 | 1010.6 |
| 20260505061504 | 19 | 205 | 14.5 | 40.2 | 0.00 | 0.00 | 0.00 | 46 | 1010.5 |
| 20260505061004 | 19 | 203 | 12.9 | 35.4 | 0.00 | 0.00 | 0.00 | 47 | 1010.5 |
| 20260505060504 | 19 | 201 | 12.9 | 35.4 | 0.00 | 0.00 | 0.00 | 47 | 1010.5 |
| 20260505060004 | 19 | 203 | 12.9 | 35.4 | 0.00 | 0.00 | 0.00 | 47 | 1010.7 |
| 20260505055502 | 19 | 200 | 12.9 | 27.4 | 0.00 | 0.00 | 0.00 | 48 | 1010.6 |
| 20260505055002 | 19 | 203 | 14.5 | 32.2 | 0.00 | 0.00 | 0.00 | 48 | 1010.5 |
| 20260505054501 | 19 | 206 | 14.5 | 32.2 | 0.00 | 0.00 | 0.00 | 48 | 1010.5 |
| 20260505054003 | 19 | 203 | 14.5 | 33.8 | 0.00 | 0.00 | 0.00 | 48 | 1010.6 |
| 20260505053503 | 19 | 204 | 14.5 | 33.8 | 0.00 | 0.00 | 0.00 | 48 | 1010.5 |
| 20260505053002 | 19 | 204 | 12.9 | 41.8 | 0.00 | 0.00 | 0.00 | 49 | 1010.5 |
| 20260505052501 | 19 | 203 | 12.9 | 41.8 | 0.00 | 0.00 | 0.00 | 48 | 1010.5 |
| 20260505052002 | 19 | 202 | 12.9 | 41.8 | 0.00 | 0.00 | 0.00 | 49 | 1010.5 |
| 20260505051502 | 18 | 199 | 11.3 | 33.8 | 0.00 | 0.00 | 0.00 | 50 | 1010.5 |
| 20260505051002 | 18 | 212 | 12.9 | 30.6 | 0.00 | 0.00 | 0.00 | 52 | 1010.5 |
| 20260505050502 | 17 | 221 | 12.9 | 24.1 | 0.00 | 0.00 | 0.00 | 56 | 1010.5 |
| 20260505041002 | 15 | 242 | 6.4 | 16.1 | 0.00 | 0.00 | 0.00 | 68 | 1010.5 |
| 20260505040501 | 14 | 235 | 4.8 | 12.9 | 0.00 | 0.00 | 0.00 | 68 | 1010.4 |
| 20260505040005 | 14 | 227 | 4.8 | 9.7 | 0.00 | 0.00 | 0.00 | 69 | 1010.4 |
| 20260505035003 | 15 | 233 | 4.8 | 9.7 | 0.00 | 0.00 | 0.00 | 67 | 1010.4 |
| 20260505034501 | 15 | 240 | 3.2 | 9.7 | 0.00 | 0.00 | 0.00 | 66 | 1010.3 |
| 20260505034002 | 15 | 244 | 4.8 | 12.9 | 0.00 | 0.00 | 0.00 | 65 | 1010.4 |
| 20260505033501 | 15 | 250 | 4.8 | 12.9 | 0.00 | 0.00 | 0.00 | 64 | 1010.5 |
| 20260505033003 | 16 | 259 | 4.8 | 11.3 | 0.00 | 0.00 | 0.00 | 63 | 1010.5 |
| 20260505032002 | 16 | 244 | 4.8 | 9.7 | 0.00 | 0.00 | 0.00 | 61 | 1010.5 |
| 20260505030502 | 17 | 225 | 4.8 | 11.3 | 0.00 | 0.00 | 0.00 | 57 | 1010.6 |
| 20260505030004 | 17 | 226 | 6.4 | 14.5 | 0.00 | 0.00 | 0.00 | 55 | 1010.6 |
| 20260505025501 | 17 | 226 | 6.4 | 14.5 | 0.00 | 0.00 | 0.00 | 55 | 1010.6 |
| 20260505025002 | 17 | 230 | 9.7 | 16.1 | 0.00 | 0.00 | 0.00 | 54 | 1010.6 |
| 20260505024502 | 18 | 229 | 9.7 | 19.3 | 0.00 | 0.00 | 0.00 | 53 | 1010.8 |
| 20260505024003 | 18 | 224 | 9.7 | 19.3 | 0.00 | 0.00 | 0.00 | 51 | 1010.9 |
| 20260505023501 | 18 | 212 | 6.4 | 17.7 | 0.00 | 0.00 | 0.00 | 51 | 1011.0 |
| 20260505023002 | 18 | 196 | 9.7 | 25.7 | 0.00 | 0.00 | 0.00 | 51 | 1011.0 |
| 20260505022002 | 18 | 199 | 9.7 | 29.0 | 0.00 | 0.00 | 0.00 | 53 | 1010.9 |
| 20260505021501 | 18 | 195 | 9.7 | 20.9 | 0.00 | 0.00 | 0.00 | 54 | 1010.9 |
| 20260505021003 | 18 | 196 | 6.4 | 20.9 | 0.00 | 0.00 | 0.00 | 54 | 1011.0 |
| 20260505020502 | 18 | 205 | 4.8 | 17.7 | 0.00 | 0.00 | 0.00 | 53 | 1010.9 |
| 20260505020003 | 18 | 201 | 4.8 | 12.9 | 0.00 | 0.00 | 0.00 | 53 | 1010.9 |
| 20260505015501 | 18 | 181 | 6.4 | 19.3 | 0.00 | 0.00 | 0.00 | 52 | 1010.8 |
| 20260505014502 | 19 | 183 | 6.4 | 25.7 | 0.00 | 0.00 | 0.00 | 50 | 1010.7 |
| 20260505014002 | 19 | 195 | 9.7 | 20.9 | 0.00 | 0.00 | 0.00 | 49 | 1010.7 |
| 20260505013002 | 18 | 220 | 6.4 | 19.3 | 0.00 | 0.00 | 0.00 | 50 | 1010.7 |
| 20260505012502 | 18 | 220 | 9.7 | 16.1 | 0.00 | 0.00 | 0.00 | 51 | 1010.6 |
| 20260505012003 | 18 | 220 | 9.7 | 25.7 | 0.00 | 0.00 | 0.00 | 52 | 1010.6 |
| 20260505011501 | 18 | 217 | 9.7 | 25.7 | 0.00 | 0.00 | 0.00 | 52 | 1010.6 |
| 20260505011003 | 18 | 212 | 9.7 | 19.3 | 0.00 | 0.00 | 0.00 | 53 | 1010.5 |
| 20260505010502 | 18 | 197 | 6.4 | 16.1 | 0.00 | 0.00 | 0.00 | 53 | 1010.4 |
| 20260505010002 | 18 | 183 | 6.4 | 19.3 | 0.00 | 0.00 | 0.00 | 53 | 1010.3 |
| 20260505005002 | 18 | 194 | 12.9 | 38.6 | 0.00 | 0.00 | 0.00 | 53 | 1010.1 |
| 20260505004502 | 18 | 185 | 12.9 | 38.6 | 0.00 | 0.00 | 0.00 | 52 | 1010.1 |
| 20260505004003 | 18 | 179 | 11.3 | 33.8 | 0.00 | 0.00 | 0.00 | 52 | 1009.9 |
| 20260505003502 | 18 | 187 | 12.9 | 33.8 | 0.00 | 0.00 | 0.00 | 53 | 1009.9 |
| 20260505003003 | 18 | 185 | 11.3 | 30.6 | 0.00 | 0.00 | 0.00 | 53 | 1009.8 |
| 20260505002502 | 18 | 187 | 9.7 | 29.0 | 0.00 | 0.00 | 0.00 | 53 | 1009.8 |
| 20260505002002 | 18 | 197 | 9.7 | 29.0 | 0.00 | 0.00 | 0.00 | 53 | 1009.8 |
| 20260505001502 | 18 | 193 | 9.7 | 29.0 | 0.00 | 0.00 | 0.00 | 53 | 1009.8 |
| 20260505001002 | 18 | 185 | 6.4 | 33.8 | 0.00 | 0.00 | 0.00 | 53 | 1009.8 |
| 20260505000501 | 18 | 187 | 9.7 | 33.8 | 0.00 | 0.00 | 0.00 | 53 | 1009.7 |
| 20260505000002 | 18 | 196 | 9.7 | 24.1 | 0.00 | 0.00 | 0.00 | 53 | 1009.8 |
| 20260504235502 | 18 | 205 | 11.3 | 29.0 | 0.00 | 0.00 | 0.00 | 53 | 1009.8 |
| 20260504235003 | 19 | 208 | 11.3 | 29.0 | 0.00 | 0.00 | 0.00 | 54 | 1009.9 |
| 20260504234502 | 19 | 204 | 11.3 | 24.1 | 0.00 | 0.00 | 0.00 | 53 | 1009.9 |
| 20260504234002 | 19 | 205 | 9.7 | 24.1 | 0.00 | 0.00 | 0.00 | 53 | 1009.7 |
| 20260504233501 | 19 | 206 | 6.4 | 20.9 | 0.00 | 0.00 | 0.00 | 52 | 1009.7 |
| 20260504232502 | 19 | 170 | 1.6 | 9.7 | 0.00 | 0.00 | 0.00 | 57 | 1009.6 |
| 20260504232002 | 19 | 172 | 3.2 | 11.3 | 0.00 | 0.00 | 0.00 | 53 | 1009.5 |
| 20260504231003 | 20 | 168 | 4.8 | 16.1 | 0.00 | 0.00 | 0.00 | 53 | 1009.5 |
| 20260504230502 | 20 | 216 | 6.4 | 17.7 | 0.00 | 0.00 | 0.00 | 52 | 1009.7 |
| 20260504230003 | 20 | 239 | 9.7 | 19.3 | 0.00 | 0.00 | 0.00 | 48 | 1010.0 |
| 20260504225502 | 20 | 228 | 6.4 | 19.3 | 0.00 | 0.00 | 0.00 | 49 | 1010.4 |
| 20260504224003 | 21 | 225 | 6.4 | 19.3 | 0.00 | 0.00 | 0.00 | 42 | 1009.8 |
| 20260504223502 | 21 | 212 | 6.4 | 16.1 | 0.00 | 0.00 | 0.00 | 43 | 1009.8 |
| 20260504222501 | 21 | 207 | 11.3 | 29.0 | 0.00 | 0.00 | 0.00 | 40 | 1009.7 |
| 20260504222002 | 21 | 203 | 9.7 | 29.0 | 0.00 | 0.00 | 0.00 | 41 | 1009.5 |
| 20260504221002 | 21 | 189 | 9.7 | 33.8 | 0.00 | 0.00 | 0.00 | 41 | 1009.3 |
| 20260504220502 | 21 | 189 | 9.7 | 33.8 | 0.00 | 0.00 | 0.00 | 42 | 1009.3 |
| 20260504220004 | 21 | 188 | 11.3 | 33.8 | 0.00 | 0.00 | 0.00 | 42 | 1009.3 |
| 20260504215501 | 22 | 192 | 9.7 | 27.4 | 0.00 | 0.00 | 0.00 | 42 | 1009.4 |
| 20260504215002 | 22 | 199 | 11.3 | 33.8 | 0.00 | 0.00 | 0.00 | 41 | 1009.5 |
| 20260504214502 | 22 | 197 | 12.9 | 33.8 | 0.00 | 0.00 | 0.00 | 41 | 1009.4 |
| 20260504213002 | 22 | 195 | 12.9 | 35.4 | 0.00 | 0.00 | 0.00 | 38 | 1009.3 |
| 20260504212501 | 23 | 203 | 11.3 | 32.2 | 0.00 | 0.00 | 0.00 | 40 | 1009.3 |
| 20260504212003 | 22 | 199 | 14.5 | 38.6 | 0.00 | 0.00 | 0.00 | 39 | 1009.3 |
| 20260504211002 | 23 | 202 | 14.5 | 40.2 | 0.00 | 0.00 | 0.00 | 39 | 1009.1 |
| 20260504210501 | 23 | 200 | 12.9 | 40.2 | 0.00 | 0.00 | 0.00 | 38 | 1009.0 |
| 20260504210003 | 23 | 200 | 11.3 | 40.2 | 0.00 | 0.00 | 0.00 | 39 | 1009.2 |
| 20260504205501 | 23 | 204 | 11.3 | 30.6 | 0.00 | 0.00 | 0.00 | 38 | 1009.1 |
| 20260504205003 | 23 | 208 | 11.3 | 29.0 | 0.00 | 0.00 | 0.00 | 37 | 1009.0 |
| 20260504204501 | 23 | 212 | 11.3 | 29.0 | 0.00 | 0.00 | 0.00 | 40 | 1009.0 |
| 20260504204004 | 23 | 202 | 12.9 | 41.8 | 0.00 | 0.00 | 0.00 | 38 | 1009.0 |
| 20260504203502 | 23 | 203 | 14.5 | 41.8 | 0.00 | 0.00 | 0.00 | 40 | 1009.1 |
| 20260504203003 | 23 | 205 | 12.9 | 38.6 | 0.00 | 0.00 | 0.00 | 39 | 1009.2 |
| 20260504202002 | 23 | 194 | 11.3 | 33.8 | 0.00 | 0.00 | 0.00 | 39 | 1009.3 |
| 20260504201502 | 23 | 178 | 9.7 | 29.0 | 0.00 | 0.00 | 0.00 | 41 | 1009.4 |
| 20260504201002 | 23 | 186 | 11.3 | 33.8 | 0.00 | 0.00 | 0.00 | 40 | 1009.6 |
| 20260504200502 | 23 | 194 | 12.9 | 33.8 | 0.00 | 0.00 | 0.00 | 42 | 1009.7 |
| 20260504200003 | 23 | 199 | 12.9 | 33.8 | 0.00 | 0.00 | 0.00 | 39 | 1009.7 |
| 20260504195502 | 23 | 194 | 9.7 | 24.1 | 0.00 | 0.00 | 0.00 | 42 | 1009.9 |
| 20260504194502 | 22 | 194 | 11.3 | 30.6 | 0.00 | 0.00 | 0.00 | 41 | 1009.9 |
| 20260504194002 | 22 | 193 | 12.9 | 30.6 | 0.00 | 0.00 | 0.00 | 39 | 1009.8 |
| 20260504193003 | 22 | 196 | 12.9 | 43.5 | 0.00 | 0.00 | 0.00 | 41 | 1010.1 |
| 20260504192502 | 22 | 195 | 12.9 | 38.6 | 0.00 | 0.00 | 0.00 | 39 | 1010.2 |
| 20260504192003 | 22 | 193 | 12.9 | 30.6 | 0.00 | 0.00 | 0.00 | 43 | 1010.3 |
| 20260504191003 | 22 | 198 | 12.9 | 32.2 | 0.00 | 0.00 | 0.00 | 39 | 1010.2 |
| 20260504190502 | 22 | 207 | 14.5 | 43.5 | 0.00 | 0.00 | 0.00 | 39 | 1010.2 |
| 20260504190003 | 22 | 204 | 14.5 | 43.5 | 0.00 | 0.00 | 0.00 | 36 | 1010.3 |
| 20260504185502 | 23 | 207 | 12.9 | 30.6 | 0.00 | 0.00 | 0.00 | 38 | 1010.2 |
| 20260504185002 | 23 | 221 | 14.5 | 32.2 | 0.00 | 0.00 | 0.00 | 39 | 1010.2 |
| 20260504184502 | 22 | 232 | 17.7 | 32.2 | 0.00 | 0.00 | 0.00 | 36 | 1010.4 |
| 20260504184004 | 22 | 237 | 17.7 | 32.2 | 0.00 | 0.00 | 0.00 | 37 | 1010.3 |
| 20260504183502 | 22 | 225 | 16.1 | 33.8 | 0.00 | 0.00 | 0.00 | 37 | 1010.4 |
| 20260504182002 | 22 | 193 | 11.3 | 30.6 | 0.00 | 0.00 | 0.00 | 38 | 1010.7 |
| 20260504181502 | 22 | 182 | 9.7 | 27.4 | 0.00 | 0.00 | 0.00 | 40 | 1010.7 |
| 20260504181002 | 22 | 191 | 11.3 | 25.7 | 0.00 | 0.00 | 0.00 | 39 | 1010.8 |
| 20260504180502 | 22 | 196 | 12.9 | 25.7 | 0.00 | 0.00 | 0.00 | 39 | 1011.0 |
| 20260504180003 | 22 | 204 | 14.5 | 35.4 | 0.00 | 0.00 | 0.00 | 38 | 1011.2 |
| 20260504175502 | 22 | 210 | 11.3 | 35.4 | 0.00 | 0.00 | 0.00 | 38 | 1011.0 |
| 20260504175002 | 22 | 203 | 11.3 | 33.8 | 0.00 | 0.00 | 0.00 | 40 | 1011.1 |
| 20260504174502 | 22 | 196 | 11.3 | 33.8 | 0.00 | 0.00 | 0.00 | 38 | 1011.2 |
| 20260504174004 | 22 | 193 | 12.9 | 35.4 | 0.00 | 0.00 | 0.00 | 39 | 1011.2 |
| 20260504173502 | 21 | 199 | 14.5 | 38.6 | 0.00 | 0.00 | 0.00 | 38 | 1011.2 |
| 20260504173002 | 22 | 202 | 14.5 | 38.6 | 0.00 | 0.00 | 0.00 | 37 | 1011.3 |
| 20260504172502 | 22 | 202 | 12.9 | 32.2 | 0.00 | 0.00 | 0.00 | 36 | 1011.5 |
| 20260504172002 | 22 | 195 | 11.3 | 32.2 | 0.00 | 0.00 | 0.00 | 39 | 1011.4 |
| 20260504171502 | 22 | 188 | 11.3 | 33.8 | 0.00 | 0.00 | 0.00 | 42 | 1011.5 |
| 20260504171003 | 22 | 192 | 11.3 | 33.8 | 0.00 | 0.00 | 0.00 | 39 | 1011.5 |
| 20260504151002 | 18 | 193 | 9.7 | 20.9 | 0.00 | 0.00 | 0.00 | 41 | 1013.3 |
| 20260504150502 | 18 | 209 | 11.3 | 27.4 | 0.00 | 0.00 | 0.00 | 42 | 1013.3 |
| 20260504141002 | 17 | 205 | 9.7 | 29.0 | 0.00 | 0.00 | 0.00 | 40 | 1013.2 |
| 20260504140502 | 17 | 195 | 6.4 | 29.0 | 0.00 | 0.00 | 0.00 | 45 | 1013.2 |
| 20260504130502 | 15 | 216 | 9.7 | 20.9 | 0.00 | 0.00 | 0.00 | 48 | 1013.8 |
| 20260504110502 | 7 | 244 | 4.8 | 11.3 | 0.00 | 0.00 | 0.00 | 71 | 1014.4 |
| 20260504100502 | 7 | 232 | 1.6 | 4.8 | 0.00 | 0.00 | 0.00 | 65 | 1014.2 |